Year,Month,Day,Hour,Minute,Value (Times are PST for insolation in W/m^2)
2019,06,06,00,00,0.00
2019,06,06,00,01,0.00
2019,06,06,00,02,0.00
2019,06,06,00,03,0.00
2019,06,06,00,04,0.00
2019,06,06,00,05,0.00
2019,06,06,00,06,0.00
2019,06,06,00,07,0.00
2019,06,06,00,08,0.00
2019,06,06,00,09,0.00
2019,06,06,00,10,0.00
2019,06,06,00,11,0.00
2019,06,06,00,12,0.00
2019,06,06,00,13,0.00
2019,06,06,00,14,0.00
2019,06,06,00,15,0.00
2019,06,06,00,16,0.00
2019,06,06,00,17,0.00
2019,06,06,00,18,0.00
2019,06,06,00,19,0.00
2019,06,06,00,20,0.00
2019,06,06,00,21,0.00
2019,06,06,00,22,0.00
2019,06,06,00,23,0.00
2019,06,06,00,24,0.00
2019,06,06,00,25,0.00
2019,06,06,00,26,0.00
2019,06,06,00,27,0.00
2019,06,06,00,28,0.00
2019,06,06,00,29,0.00
2019,06,06,00,30,0.00
2019,06,06,00,31,0.00
2019,06,06,00,32,0.00
2019,06,06,00,33,0.00
2019,06,06,00,34,0.00
2019,06,06,00,35,0.00
2019,06,06,00,36,0.00
2019,06,06,00,37,0.00
2019,06,06,00,38,0.00
2019,06,06,00,39,0.00
2019,06,06,00,40,0.00
2019,06,06,00,41,0.00
2019,06,06,00,42,0.00
2019,06,06,00,43,0.00
2019,06,06,00,44,0.00
2019,06,06,00,45,0.00
2019,06,06,00,46,0.00
2019,06,06,00,47,0.00
2019,06,06,00,48,0.00
2019,06,06,00,49,0.00
2019,06,06,00,50,0.00
2019,06,06,00,51,0.00
2019,06,06,00,52,0.00
2019,06,06,00,53,0.00
2019,06,06,00,54,0.00
2019,06,06,00,55,0.00
2019,06,06,00,56,0.00
2019,06,06,00,57,0.00
2019,06,06,00,58,0.00
2019,06,06,00,59,0.00
2019,06,06,01,00,0.00
2019,06,06,01,01,0.00
2019,06,06,01,02,0.00
2019,06,06,01,03,0.00
2019,06,06,01,04,0.00
2019,06,06,01,05,0.00
2019,06,06,01,06,0.00
2019,06,06,01,07,0.00
2019,06,06,01,08,0.00
2019,06,06,01,09,0.00
2019,06,06,01,10,0.00
2019,06,06,01,11,0.00
2019,06,06,01,12,0.00
2019,06,06,01,13,0.00
2019,06,06,01,14,0.00
2019,06,06,01,15,0.00
2019,06,06,01,16,0.00
2019,06,06,01,17,0.00
2019,06,06,01,18,0.00
2019,06,06,01,19,0.00
2019,06,06,01,20,0.00
2019,06,06,01,21,0.00
2019,06,06,01,22,0.00
2019,06,06,01,23,0.00
2019,06,06,01,24,0.00
2019,06,06,01,25,0.00
2019,06,06,01,26,0.00
2019,06,06,01,27,0.00
2019,06,06,01,28,0.00
2019,06,06,01,29,0.00
2019,06,06,01,30,0.00
2019,06,06,01,31,0.00
2019,06,06,01,32,0.00
2019,06,06,01,33,0.00
2019,06,06,01,34,0.00
2019,06,06,01,35,0.00
2019,06,06,01,36,0.00
2019,06,06,01,37,0.00
2019,06,06,01,38,0.00
2019,06,06,01,39,0.00
2019,06,06,01,40,0.00
2019,06,06,01,41,0.00
2019,06,06,01,42,0.00
2019,06,06,01,43,0.00
2019,06,06,01,44,0.00
2019,06,06,01,45,0.00
2019,06,06,01,46,0.00
2019,06,06,01,47,0.00
2019,06,06,01,48,0.00
2019,06,06,01,49,0.00
2019,06,06,01,50,0.00
2019,06,06,01,51,0.00
2019,06,06,01,52,0.00
2019,06,06,01,53,0.00
2019,06,06,01,54,0.00
2019,06,06,01,55,0.00
2019,06,06,01,56,0.00
2019,06,06,01,57,0.00
2019,06,06,01,58,0.00
2019,06,06,01,59,0.00
2019,06,06,02,00,0.00
2019,06,06,02,01,0.00
2019,06,06,02,02,0.00
2019,06,06,02,03,0.00
2019,06,06,02,04,0.00
2019,06,06,02,05,0.00
2019,06,06,02,06,0.00
2019,06,06,02,07,0.00
2019,06,06,02,08,0.00
2019,06,06,02,09,0.00
2019,06,06,02,10,0.00
2019,06,06,02,11,0.00
2019,06,06,02,12,0.00
2019,06,06,02,13,0.00
2019,06,06,02,14,0.00
2019,06,06,02,15,0.00
2019,06,06,02,16,0.00
2019,06,06,02,17,0.00
2019,06,06,02,18,0.00
2019,06,06,02,19,0.00
2019,06,06,02,20,0.00
2019,06,06,02,21,0.00
2019,06,06,02,22,0.00
2019,06,06,02,23,0.00
2019,06,06,02,24,0.00
2019,06,06,02,25,0.00
2019,06,06,02,26,0.00
2019,06,06,02,27,0.00
2019,06,06,02,28,0.00
2019,06,06,02,29,0.00
2019,06,06,02,30,0.00
2019,06,06,02,31,0.00
2019,06,06,02,32,0.00
2019,06,06,02,33,0.00
2019,06,06,02,34,0.00
2019,06,06,02,35,0.00
2019,06,06,02,36,0.00
2019,06,06,02,37,0.00
2019,06,06,02,38,0.00
2019,06,06,02,39,0.00
2019,06,06,02,40,0.00
2019,06,06,02,41,0.00
2019,06,06,02,42,0.00
2019,06,06,02,43,0.00
2019,06,06,02,44,0.00
2019,06,06,02,45,0.00
2019,06,06,02,46,0.00
2019,06,06,02,47,0.00
2019,06,06,02,48,0.00
2019,06,06,02,49,0.00
2019,06,06,02,50,0.00
2019,06,06,02,51,0.00
2019,06,06,02,52,0.00
2019,06,06,02,53,0.00
2019,06,06,02,54,0.00
2019,06,06,02,55,0.00
2019,06,06,02,56,0.00
2019,06,06,02,57,0.00
2019,06,06,02,58,0.00
2019,06,06,02,59,0.00
2019,06,06,03,00,0.00
2019,06,06,03,01,0.00
2019,06,06,03,02,0.00
2019,06,06,03,03,0.00
2019,06,06,03,04,0.00
2019,06,06,03,05,0.00
2019,06,06,03,06,0.00
2019,06,06,03,07,0.00
2019,06,06,03,08,0.00
2019,06,06,03,09,0.00
2019,06,06,03,10,0.00
2019,06,06,03,11,0.00
2019,06,06,03,12,0.00
2019,06,06,03,13,0.00
2019,06,06,03,14,0.00
2019,06,06,03,15,0.00
2019,06,06,03,16,0.00
2019,06,06,03,17,0.00
2019,06,06,03,18,0.00
2019,06,06,03,19,0.00
2019,06,06,03,20,0.00
2019,06,06,03,21,0.00
2019,06,06,03,22,0.00
2019,06,06,03,23,0.00
2019,06,06,03,24,0.00
2019,06,06,03,25,0.00
2019,06,06,03,26,0.00
2019,06,06,03,27,0.00
2019,06,06,03,28,0.00
2019,06,06,03,29,0.00
2019,06,06,03,30,0.00
2019,06,06,03,31,0.00
2019,06,06,03,32,0.00
2019,06,06,03,33,0.00
2019,06,06,03,34,0.00
2019,06,06,03,35,0.00
2019,06,06,03,36,0.00
2019,06,06,03,37,0.00
2019,06,06,03,38,0.00
2019,06,06,03,39,0.00
2019,06,06,03,40,0.00
2019,06,06,03,41,0.00
2019,06,06,03,42,0.00
2019,06,06,03,43,0.00
2019,06,06,03,44,0.00
2019,06,06,03,45,0.00
2019,06,06,03,46,0.00
2019,06,06,03,47,0.00
2019,06,06,03,48,0.00
2019,06,06,03,49,0.00
2019,06,06,03,50,0.00
2019,06,06,03,51,0.00
2019,06,06,03,52,0.00
2019,06,06,03,53,0.00
2019,06,06,03,54,0.00
2019,06,06,03,55,0.00
2019,06,06,03,56,0.00
2019,06,06,03,57,0.00
2019,06,06,03,58,0.00
2019,06,06,03,59,0.00
2019,06,06,04,00,0.00
2019,06,06,04,01,0.00
2019,06,06,04,02,0.00
2019,06,06,04,03,0.00
2019,06,06,04,04,0.00
2019,06,06,04,05,0.00
2019,06,06,04,06,0.00
2019,06,06,04,07,0.00
2019,06,06,04,08,0.00
2019,06,06,04,09,0.00
2019,06,06,04,10,0.00
2019,06,06,04,11,0.00
2019,06,06,04,12,0.00
2019,06,06,04,13,0.00
2019,06,06,04,14,0.00
2019,06,06,04,15,0.00
2019,06,06,04,16,0.00
2019,06,06,04,17,0.00
2019,06,06,04,18,0.00
2019,06,06,04,19,0.00
2019,06,06,04,20,0.00
2019,06,06,04,21,0.00
2019,06,06,04,22,0.00
2019,06,06,04,23,0.00
2019,06,06,04,24,0.00
2019,06,06,04,25,0.00
2019,06,06,04,26,0.00
2019,06,06,04,27,0.00
2019,06,06,04,28,0.00
2019,06,06,04,29,0.00
2019,06,06,04,30,0.00
2019,06,06,04,31,0.00
2019,06,06,04,32,0.00
2019,06,06,04,33,0.00
2019,06,06,04,34,0.00
2019,06,06,04,35,0.00
2019,06,06,04,36,0.00
2019,06,06,04,37,0.00
2019,06,06,04,38,0.00
2019,06,06,04,39,0.00
2019,06,06,04,40,0.00
2019,06,06,04,41,0.00
2019,06,06,04,42,0.00
2019,06,06,04,43,0.00
2019,06,06,04,44,0.00
2019,06,06,04,45,0.00
2019,06,06,04,46,0.00
2019,06,06,04,47,0.00
2019,06,06,04,48,0.00
2019,06,06,04,49,0.00
2019,06,06,04,50,0.00
2019,06,06,04,51,0.00
2019,06,06,04,52,0.00
2019,06,06,04,53,0.00
2019,06,06,04,54,0.00
2019,06,06,04,55,0.00
2019,06,06,04,56,0.00
2019,06,06,04,57,0.00
2019,06,06,04,58,0.00
2019,06,06,04,59,0.00
2019,06,06,05,00,0.00
2019,06,06,05,01,0.00
2019,06,06,05,02,0.00
2019,06,06,05,03,0.00
2019,06,06,05,04,0.00
2019,06,06,05,05,0.00
2019,06,06,05,06,0.00
2019,06,06,05,07,0.00
2019,06,06,05,08,0.00
2019,06,06,05,09,0.00
2019,06,06,05,10,0.00
2019,06,06,05,11,0.00
2019,06,06,05,12,0.00
2019,06,06,05,13,0.00
2019,06,06,05,14,0.00
2019,06,06,05,15,0.00
2019,06,06,05,16,0.00
2019,06,06,05,17,1.80
2019,06,06,05,18,5.00
2019,06,06,05,19,5.00
2019,06,06,05,20,5.00
2019,06,06,05,21,5.00
2019,06,06,05,22,6.70
2019,06,06,05,23,7.00
2019,06,06,05,24,7.00
2019,06,06,05,25,7.00
2019,06,06,05,26,7.70
2019,06,06,05,27,9.00
2019,06,06,05,28,9.00
2019,06,06,05,29,9.00
2019,06,06,05,30,9.00
2019,06,06,05,31,10.90
2019,06,06,05,32,11.00
2019,06,06,05,33,11.00
2019,06,06,05,34,11.00
2019,06,06,05,35,11.00
2019,06,06,05,36,11.00
2019,06,06,05,37,11.00
2019,06,06,05,38,11.00
2019,06,06,05,39,11.90
2019,06,06,05,40,12.00
2019,06,06,05,41,12.00
2019,06,06,05,42,12.00
2019,06,06,05,43,12.80
2019,06,06,05,44,14.00
2019,06,06,05,45,14.00
2019,06,06,05,46,14.00
2019,06,06,05,47,14.00
2019,06,06,05,48,15.80
2019,06,06,05,49,16.00
2019,06,06,05,50,16.40
2019,06,06,05,51,18.00
2019,06,06,05,52,18.40
2019,06,06,05,53,19.00
2019,06,06,05,54,19.00
2019,06,06,05,55,19.00
2019,06,06,05,56,20.70
2019,06,06,05,57,21.00
2019,06,06,05,58,21.30
2019,06,06,05,59,23.50
2019,06,06,06,00,25.00
2019,06,06,06,01,25.00
2019,06,06,06,02,25.00
2019,06,06,06,03,25.00
2019,06,06,06,04,25.80
2019,06,06,06,05,26.00
2019,06,06,06,06,26.10
2019,06,06,06,07,28.00
2019,06,06,06,08,28.60
2019,06,06,06,09,30.00
2019,06,06,06,10,30.00
2019,06,06,06,11,30.00
2019,06,06,06,12,30.00
2019,06,06,06,13,31.60
2019,06,06,06,14,32.00
2019,06,06,06,15,35.00
2019,06,06,06,16,35.00
2019,06,06,06,17,36.20
2019,06,06,06,18,39.50
2019,06,06,06,19,41.10
2019,06,06,06,20,42.00
2019,06,06,06,21,44.80
2019,06,06,06,22,46.80
2019,06,06,06,23,49.10
2019,06,06,06,24,55.50
2019,06,06,06,25,76.20
2019,06,06,06,26,102.60
2019,06,06,06,27,115.50
2019,06,06,06,28,115.90
2019,06,06,06,29,122.10
2019,06,06,06,30,125.50
2019,06,06,06,31,126.70
2019,06,06,06,32,119.60
2019,06,06,06,33,103.60
2019,06,06,06,34,90.10
2019,06,06,06,35,86.40
2019,06,06,06,36,84.00
2019,06,06,06,37,82.10
2019,06,06,06,38,81.00
2019,06,06,06,39,82.60
2019,06,06,06,40,85.80
2019,06,06,06,41,88.30
2019,06,06,06,42,90.80
2019,06,06,06,43,93.70
2019,06,06,06,44,95.00
2019,06,06,06,45,98.80
2019,06,06,06,46,103.30
2019,06,06,06,47,104.80
2019,06,06,06,48,105.00
2019,06,06,06,49,106.80
2019,06,06,06,50,106.30
2019,06,06,06,51,118.40
2019,06,06,06,52,128.60
2019,06,06,06,53,123.50
2019,06,06,06,54,113.00
2019,06,06,06,55,111.50
2019,06,06,06,56,111.00
2019,06,06,06,57,111.00
2019,06,06,06,58,107.00
2019,06,06,06,59,107.00
2019,06,06,07,00,107.00
2019,06,06,07,01,108.60
2019,06,06,07,02,111.00
2019,06,06,07,03,111.00
2019,06,06,07,04,112.50
2019,06,06,07,05,113.00
2019,06,06,07,06,112.90
2019,06,06,07,07,110.70
2019,06,06,07,08,108.50
2019,06,06,07,09,105.80
2019,06,06,07,10,103.10
2019,06,06,07,11,100.90
2019,06,06,07,12,100.00
2019,06,06,07,13,100.00
2019,06,06,07,14,101.70
2019,06,06,07,15,104.30
2019,06,06,07,16,107.40
2019,06,06,07,17,109.00
2019,06,06,07,18,109.00
2019,06,06,07,19,107.00
2019,06,06,07,20,103.10
2019,06,06,07,21,100.60
2019,06,06,07,22,98.40
2019,06,06,07,23,98.00
2019,06,06,07,24,100.20
2019,06,06,07,25,102.00
2019,06,06,07,26,102.70
2019,06,06,07,27,103.10
2019,06,06,07,28,102.00
2019,06,06,07,29,102.00
2019,06,06,07,30,103.50
2019,06,06,07,31,104.00
2019,06,06,07,32,105.00
2019,06,06,07,33,105.00
2019,06,06,07,34,105.60
2019,06,06,07,35,107.00
2019,06,06,07,36,108.00
2019,06,06,07,37,109.00
2019,06,06,07,38,110.40
2019,06,06,07,39,113.40
2019,06,06,07,40,115.80
2019,06,06,07,41,118.30
2019,06,06,07,42,121.50
2019,06,06,07,43,123.60
2019,06,06,07,44,125.00
2019,06,06,07,45,126.50
2019,06,06,07,46,129.30
2019,06,06,07,47,131.50
2019,06,06,07,48,133.70
2019,06,06,07,49,134.90
2019,06,06,07,50,135.00
2019,06,06,07,51,135.00
2019,06,06,07,52,135.00
2019,06,06,07,53,134.50
2019,06,06,07,54,134.00
2019,06,06,07,55,134.00
2019,06,06,07,56,134.80
2019,06,06,07,57,136.80
2019,06,06,07,58,141.30
2019,06,06,07,59,144.40
2019,06,06,08,00,146.60
2019,06,06,08,01,148.40
2019,06,06,08,02,149.00
2019,06,06,08,03,150.20
2019,06,06,08,04,152.50
2019,06,06,08,05,154.60
2019,06,06,08,06,155.90
2019,06,06,08,07,160.30
2019,06,06,08,08,162.00
2019,06,06,08,09,162.40
2019,06,06,08,10,164.80
2019,06,06,08,11,168.00
2019,06,06,08,12,169.00
2019,06,06,08,13,170.50
2019,06,06,08,14,171.00
2019,06,06,08,15,172.10
2019,06,06,08,16,174.40
2019,06,06,08,17,176.90
2019,06,06,08,18,180.50
2019,06,06,08,19,184.50
2019,06,06,08,20,189.60
2019,06,06,08,21,195.40
2019,06,06,08,22,199.40
2019,06,06,08,23,203.60
2019,06,06,08,24,207.00
2019,06,06,08,25,208.50
2019,06,06,08,26,213.90
2019,06,06,08,27,217.60
2019,06,06,08,28,221.60
2019,06,06,08,29,224.30
2019,06,06,08,30,225.00
2019,06,06,08,31,248.80
2019,06,06,08,32,228.30
2019,06,06,08,33,228.10
2019,06,06,08,34,240.90
2019,06,06,08,35,243.40
2019,06,06,08,36,219.10
2019,06,06,08,37,216.90
2019,06,06,08,38,217.40
2019,06,06,08,39,218.00
2019,06,06,08,40,218.00
2019,06,06,08,41,218.00
2019,06,06,08,42,217.60
2019,06,06,08,43,215.40
2019,06,06,08,44,214.00
2019,06,06,08,45,212.50
2019,06,06,08,46,209.80
2019,06,06,08,47,207.60
2019,06,06,08,48,207.00
2019,06,06,08,49,207.00
2019,06,06,08,50,209.30
2019,06,06,08,51,211.50
2019,06,06,08,52,213.00
2019,06,06,08,53,213.40
2019,06,06,08,54,216.20
2019,06,06,08,55,218.00
2019,06,06,08,56,226.70
2019,06,06,08,57,233.20
2019,06,06,08,58,241.60
2019,06,06,08,59,250.80
2019,06,06,09,00,256.50
2019,06,06,09,01,263.60
2019,06,06,09,02,273.70
2019,06,06,09,03,288.60
2019,06,06,09,04,319.50
2019,06,06,09,05,318.80
2019,06,06,09,06,324.50
2019,06,06,09,07,396.00
2019,06,06,09,08,388.50
2019,06,06,09,09,366.00
2019,06,06,09,10,409.20
2019,06,06,09,11,462.00
2019,06,06,09,12,585.50
2019,06,06,09,13,652.00
2019,06,06,09,14,426.80
2019,06,06,09,15,416.50
2019,06,06,09,16,418.00
2019,06,06,09,17,418.00
2019,06,06,09,18,418.00
2019,06,06,09,19,421.10
2019,06,06,09,20,408.00
2019,06,06,09,21,445.80
2019,06,06,09,22,440.80
2019,06,06,09,23,434.00
2019,06,06,09,24,686.00
2019,06,06,09,25,714.00
2019,06,06,09,26,826.00
2019,06,06,09,27,826.00
2019,06,06,09,28,826.00
2019,06,06,09,29,570.30
2019,06,06,09,30,432.50
2019,06,06,09,31,422.20
2019,06,06,09,32,343.10
2019,06,06,09,33,350.70
2019,06,06,09,34,363.80
2019,06,06,09,35,360.10
2019,06,06,09,36,346.60
2019,06,06,09,37,327.70
2019,06,06,09,38,319.60
2019,06,06,09,39,325.00
2019,06,06,09,40,406.40
2019,06,06,09,41,395.90
2019,06,06,09,42,402.00
2019,06,06,09,43,428.00
2019,06,06,09,44,394.60
2019,06,06,09,45,367.00
2019,06,06,09,46,367.00
2019,06,06,09,47,335.50
2019,06,06,09,48,294.40
2019,06,06,09,49,294.20
2019,06,06,09,50,315.80
2019,06,06,09,51,362.60
2019,06,06,09,52,376.70
2019,06,06,09,53,399.40
2019,06,06,09,54,424.00
2019,06,06,09,55,762.00
2019,06,06,09,56,944.00
2019,06,06,09,57,491.00
2019,06,06,09,58,411.00
2019,06,06,09,59,416.10
2019,06,06,10,00,445.00
2019,06,06,10,01,445.00
2019,06,06,10,02,445.00
2019,06,06,10,03,489.00
2019,06,06,10,04,452.00
2019,06,06,10,05,409.20
2019,06,06,10,06,406.00
2019,06,06,10,07,823.00
2019,06,06,10,08,823.00
2019,06,06,10,09,823.00
2019,06,06,10,10,655.00
2019,06,06,10,11,404.50
2019,06,06,10,12,408.50
2019,06,06,10,13,402.30
2019,06,06,10,14,419.00
2019,06,06,10,15,417.00
2019,06,06,10,16,401.60
2019,06,06,10,17,382.90
2019,06,06,10,18,358.60
2019,06,06,10,19,340.60
2019,06,06,10,20,331.80
2019,06,06,10,21,335.90
2019,06,06,10,22,354.80
2019,06,06,10,23,396.50
2019,06,06,10,24,403.00
2019,06,06,10,25,403.00
2019,06,06,10,26,403.00
2019,06,06,10,27,403.00
2019,06,06,10,28,435.50
2019,06,06,10,29,493.50
2019,06,06,10,30,465.80
2019,06,06,10,31,436.40
2019,06,06,10,32,442.10
2019,06,06,10,33,403.00
2019,06,06,10,34,393.00
2019,06,06,10,35,387.20
2019,06,06,10,36,379.80
2019,06,06,10,37,379.10
2019,06,06,10,38,385.20
2019,06,06,10,39,400.00
2019,06,06,10,40,458.40
2019,06,06,10,41,440.30
2019,06,06,10,42,437.40
2019,06,06,10,43,456.80
2019,06,06,10,44,474.10
2019,06,06,10,45,433.80
2019,06,06,10,46,419.00
2019,06,06,10,47,412.20
2019,06,06,10,48,408.60
2019,06,06,10,49,404.40
2019,06,06,10,50,397.90
2019,06,06,10,51,384.60
2019,06,06,10,52,383.00
2019,06,06,10,53,383.00
2019,06,06,10,54,383.00
2019,06,06,10,55,383.00
2019,06,06,10,56,383.00
2019,06,06,10,57,383.00
2019,06,06,10,58,405.00
2019,06,06,10,59,824.00
2019,06,06,11,00,824.00
2019,06,06,11,01,824.00
2019,06,06,11,02,824.00
2019,06,06,11,03,857.00
2019,06,06,11,04,820.30
2019,06,06,11,05,829.50
2019,06,06,11,06,850.00
2019,06,06,11,07,832.90
2019,06,06,11,08,822.70
2019,06,06,11,09,820.40
2019,06,06,11,10,820.60
2019,06,06,11,11,825.50
2019,06,06,11,12,829.20
2019,06,06,11,13,832.10
2019,06,06,11,14,836.20
2019,06,06,11,15,837.00
2019,06,06,11,16,838.00
2019,06,06,11,17,838.00
2019,06,06,11,18,840.10
2019,06,06,11,19,844.00
2019,06,06,11,20,844.00
2019,06,06,11,21,845.30
2019,06,06,11,22,846.80
2019,06,06,11,23,844.50
2019,06,06,11,24,844.00
2019,06,06,11,25,844.00
2019,06,06,11,26,843.50
2019,06,06,11,27,842.00
2019,06,06,11,28,841.10
2019,06,06,11,29,840.00
2019,06,06,11,30,840.00
2019,06,06,11,31,840.00
2019,06,06,11,32,840.00
2019,06,06,11,33,842.20
2019,06,06,11,34,844.00
2019,06,06,11,35,844.50
2019,06,06,11,36,846.40
2019,06,06,11,37,848.10
2019,06,06,11,38,847.80
2019,06,06,11,39,848.40
2019,06,06,11,40,852.40
2019,06,06,11,41,853.00
2019,06,06,11,42,854.30
2019,06,06,11,43,856.00
2019,06,06,11,44,856.00
2019,06,06,11,45,856.90
2019,06,06,11,46,856.90
2019,06,06,11,47,857.30
2019,06,06,11,48,858.00
2019,06,06,11,49,862.20
2019,06,06,11,50,863.20
2019,06,06,11,51,865.40
2019,06,06,11,52,867.00
2019,06,06,11,53,867.00
2019,06,06,11,54,867.00
2019,06,06,11,55,867.60
2019,06,06,11,56,868.00
2019,06,06,11,57,868.00
2019,06,06,11,58,869.80
2019,06,06,11,59,872.00
2019,06,06,12,00,872.00
2019,06,06,12,01,872.00
2019,06,06,12,02,871.10
2019,06,06,12,03,872.10
2019,06,06,12,04,875.90
2019,06,06,12,05,877.00
2019,06,06,12,06,875.30
2019,06,06,12,07,877.30
2019,06,06,12,08,880.70
2019,06,06,12,09,879.50
2019,06,06,12,10,881.00
2019,06,06,12,11,882.30
2019,06,06,12,12,885.10
2019,06,06,12,13,886.00
2019,06,06,12,14,886.00
2019,06,06,12,15,888.70
2019,06,06,12,16,889.20
2019,06,06,12,17,891.30
2019,06,06,12,18,893.60
2019,06,06,12,19,896.20
2019,06,06,12,20,899.00
2019,06,06,12,21,901.20
2019,06,06,12,22,902.00
2019,06,06,12,23,906.00
2019,06,06,12,24,905.30
2019,06,06,12,25,906.70
2019,06,06,12,26,904.80
2019,06,06,12,27,904.00
2019,06,06,12,28,902.30
2019,06,06,12,29,901.00
2019,06,06,12,30,903.30
2019,06,06,12,31,901.00
2019,06,06,12,32,901.70
2019,06,06,12,33,904.40
2019,06,06,12,34,909.60
2019,06,06,12,35,911.70
2019,06,06,12,36,911.40
2019,06,06,12,37,913.00
2019,06,06,12,38,915.20
2019,06,06,12,39,916.00
2019,06,06,12,40,916.00
2019,06,06,12,41,926.80
2019,06,06,12,42,918.00
2019,06,06,12,43,918.20
2019,06,06,12,44,919.00
2019,06,06,12,45,919.00
2019,06,06,12,46,922.10
2019,06,06,12,47,934.10
2019,06,06,12,48,943.90
2019,06,06,12,49,972.30
2019,06,06,12,50,961.60
2019,06,06,12,51,1009.00
2019,06,06,12,52,997.80
2019,06,06,12,53,993.40
2019,06,06,12,54,979.90
2019,06,06,12,55,967.20
2019,06,06,12,56,955.20
2019,06,06,12,57,949.40
2019,06,06,12,58,950.80
2019,06,06,12,59,953.50
2019,06,06,13,00,948.60
2019,06,06,13,01,946.10
2019,06,06,13,02,942.30
2019,06,06,13,03,940.00
2019,06,06,13,04,939.40
2019,06,06,13,05,939.70
2019,06,06,13,06,941.60
2019,06,06,13,07,947.00
2019,06,06,13,08,956.60
2019,06,06,13,09,961.20
2019,06,06,13,10,965.70
2019,06,06,13,11,967.80
2019,06,06,13,12,976.70
2019,06,06,13,13,983.00
2019,06,06,13,14,983.00
2019,06,06,13,15,1008.50
2019,06,06,13,16,1037.50
2019,06,06,13,17,1071.00
2019,06,06,13,18,1071.00
2019,06,06,13,19,1071.00
2019,06,06,13,20,1071.00
2019,06,06,13,21,1071.00
2019,06,06,13,22,622.40
2019,06,06,13,23,515.80
2019,06,06,13,24,468.30
2019,06,06,13,25,454.80
2019,06,06,13,26,382.40
2019,06,06,13,27,313.60
2019,06,06,13,28,309.40
2019,06,06,13,29,313.20
2019,06,06,13,30,321.30
2019,06,06,13,31,334.10
2019,06,06,13,32,353.40
2019,06,06,13,33,388.40
2019,06,06,13,34,402.90
2019,06,06,13,35,468.60
2019,06,06,13,36,455.30
2019,06,06,13,37,456.40
2019,06,06,13,38,448.00
2019,06,06,13,39,448.00
2019,06,06,13,40,493.80
2019,06,06,13,41,533.20
2019,06,06,13,42,552.80
2019,06,06,13,43,680.60
2019,06,06,13,44,631.00
2019,06,06,13,45,631.00
2019,06,06,13,46,560.00
2019,06,06,13,47,477.00
2019,06,06,13,48,458.50
2019,06,06,13,49,449.20
2019,06,06,13,50,451.50
2019,06,06,13,51,486.50
2019,06,06,13,52,520.50
2019,06,06,13,53,564.00
2019,06,06,13,54,564.00
2019,06,06,13,55,564.00
2019,06,06,13,56,564.00
2019,06,06,13,57,600.60
2019,06,06,13,58,600.10
2019,06,06,13,59,604.70
2019,06,06,14,00,684.30
2019,06,06,14,01,1122.90
2019,06,06,14,02,1061.60
2019,06,06,14,03,1015.00
2019,06,06,14,04,1014.00
2019,06,06,14,05,1014.00
2019,06,06,14,06,1014.00
2019,06,06,14,07,1014.00
2019,06,06,14,08,902.30
2019,06,06,14,09,902.80
2019,06,06,14,10,897.00
2019,06,06,14,11,894.20
2019,06,06,14,12,894.10
2019,06,06,14,13,892.60
2019,06,06,14,14,891.00
2019,06,06,14,15,891.00
2019,06,06,14,16,890.90
2019,06,06,14,17,888.80
2019,06,06,14,18,887.50
2019,06,06,14,19,887.00
2019,06,06,14,20,889.90
2019,06,06,14,21,892.20
2019,06,06,14,22,894.40
2019,06,06,14,23,893.40
2019,06,06,14,24,891.30
2019,06,06,14,25,866.10
2019,06,06,14,26,859.40
2019,06,06,14,27,871.90
2019,06,06,14,28,888.00
2019,06,06,14,29,885.90
2019,06,06,14,30,888.50
2019,06,06,14,31,884.20
2019,06,06,14,32,870.20
2019,06,06,14,33,904.90
2019,06,06,14,34,852.20
2019,06,06,14,35,882.00
2019,06,06,14,36,882.00
2019,06,06,14,37,896.40
2019,06,06,14,38,908.50
2019,06,06,14,39,902.70
2019,06,06,14,40,899.00
2019,06,06,14,41,889.50
2019,06,06,14,42,893.90
2019,06,06,14,43,885.20
2019,06,06,14,44,939.80
2019,06,06,14,45,961.60
2019,06,06,14,46,942.00
2019,06,06,14,47,934.20
2019,06,06,14,48,922.20
2019,06,06,14,49,916.50
2019,06,06,14,50,916.00
2019,06,06,14,51,913.30
2019,06,06,14,52,905.20
2019,06,06,14,53,894.50
2019,06,06,14,54,883.40
2019,06,06,14,55,874.50
2019,06,06,14,56,868.90
2019,06,06,14,57,864.00
2019,06,06,14,58,863.00
2019,06,06,14,59,861.10
2019,06,06,15,00,860.50
2019,06,06,15,01,857.50
2019,06,06,15,02,856.70
2019,06,06,15,03,857.10
2019,06,06,15,04,858.30
2019,06,06,15,05,858.70
2019,06,06,15,06,859.60
2019,06,06,15,07,854.60
2019,06,06,15,08,859.60
2019,06,06,15,09,857.00
2019,06,06,15,10,861.00
2019,06,06,15,11,861.00
2019,06,06,15,12,864.50
2019,06,06,15,13,871.60
2019,06,06,15,14,869.00
2019,06,06,15,15,851.70
2019,06,06,15,16,842.70
2019,06,06,15,17,849.70
2019,06,06,15,18,855.40
2019,06,06,15,19,854.70
2019,06,06,15,20,858.80
2019,06,06,15,21,860.00
2019,06,06,15,22,770.20
2019,06,06,15,23,715.00
2019,06,06,15,24,862.90
2019,06,06,15,25,872.00
2019,06,06,15,26,863.80
2019,06,06,15,27,867.10
2019,06,06,15,28,864.10
2019,06,06,15,29,862.00
2019,06,06,15,30,863.40
2019,06,06,15,31,871.30
2019,06,06,15,32,874.80
2019,06,06,15,33,883.10
2019,06,06,15,34,901.70
2019,06,06,15,35,910.20
2019,06,06,15,36,905.00
2019,06,06,15,37,905.00
2019,06,06,15,38,573.40
2019,06,06,15,39,281.80
2019,06,06,15,40,253.40
2019,06,06,15,41,264.60
2019,06,06,15,42,271.00
2019,06,06,15,43,271.00
2019,06,06,15,44,369.90
2019,06,06,15,45,640.70
2019,06,06,15,46,629.00
2019,06,06,15,47,656.50
2019,06,06,15,48,730.30
2019,06,06,15,49,722.50
2019,06,06,15,50,753.40
2019,06,06,15,51,758.00
2019,06,06,15,52,679.10
2019,06,06,15,53,383.00
2019,06,06,15,54,585.10
2019,06,06,15,55,856.00
2019,06,06,15,56,874.20
2019,06,06,15,57,891.00
2019,06,06,15,58,457.30
2019,06,06,15,59,342.30
2019,06,06,16,00,314.00
2019,06,06,16,01,391.50
2019,06,06,16,02,369.00
2019,06,06,16,03,369.00
2019,06,06,16,04,369.00
2019,06,06,16,05,369.00
2019,06,06,16,06,518.30
2019,06,06,16,07,578.00
2019,06,06,16,08,578.00
2019,06,06,16,09,578.00
2019,06,06,16,10,578.00
2019,06,06,16,11,483.30
2019,06,06,16,12,360.30
2019,06,06,16,13,383.20
2019,06,06,16,14,445.40
2019,06,06,16,15,474.10
2019,06,06,16,16,441.80
2019,06,06,16,17,395.30
2019,06,06,16,18,359.10
2019,06,06,16,19,347.00
2019,06,06,16,20,334.30
2019,06,06,16,21,318.90
2019,06,06,16,22,308.10
2019,06,06,16,23,296.80
2019,06,06,16,24,300.10
2019,06,06,16,25,295.00
2019,06,06,16,26,288.00
2019,06,06,16,27,291.30
2019,06,06,16,28,301.80
2019,06,06,16,29,304.00
2019,06,06,16,30,304.30
2019,06,06,16,31,312.80
2019,06,06,16,32,320.50
2019,06,06,16,33,302.50
2019,06,06,16,34,295.70
2019,06,06,16,35,304.60
2019,06,06,16,36,311.70
2019,06,06,16,37,300.40
2019,06,06,16,38,295.00
2019,06,06,16,39,290.70
2019,06,06,16,40,289.40
2019,06,06,16,41,293.20
2019,06,06,16,42,296.80
2019,06,06,16,43,299.50
2019,06,06,16,44,303.00
2019,06,06,16,45,309.50
2019,06,06,16,46,319.10
2019,06,06,16,47,322.50
2019,06,06,16,48,327.20
2019,06,06,16,49,339.80
2019,06,06,16,50,363.60
2019,06,06,16,51,425.30
2019,06,06,16,52,508.80
2019,06,06,16,53,612.50
2019,06,06,16,54,689.70
2019,06,06,16,55,723.30
2019,06,06,16,56,753.40
2019,06,06,16,57,763.90
2019,06,06,16,58,794.20
2019,06,06,16,59,833.50
2019,06,06,17,00,828.00
2019,06,06,17,01,757.00
2019,06,06,17,02,791.80
2019,06,06,17,03,779.20
2019,06,06,17,04,789.00
2019,06,06,17,05,803.00